Time,TemperatureF,DewpointF,PressureIn,WindDirection,WindDirectionDegrees,WindSpeedMPH,WindSpeedGustMPH,Humidity,HourlyPrecipIn,Conditions,Clouds,dailyrainin,SolarRadiationWatts/m^2,SoftwareType,DateUTC
2013-10-25 00:00:00,44.9,42.7,30.16,SW,232,0.0,0.0,92,0.00,,---,0.00,0.00,VWS V14.01,2013-10-25 04:00:00,
2013-10-25 00:01:00,44.9,42.7,30.16,SW,232,0.0,0.0,92,0.00,,---,0.00,0.00,VWS V14.01,2013-10-25 04:01:00,
2013-10-25 00:02:00,44.8,42.6,30.16,SW,232,0.0,0.0,92,0.00,,---,0.00,0.00,VWS V14.01,2013-10-25 04:02:00,
2013-10-25 00:03:00,44.7,42.5,30.16,SW,232,0.0,0.0,92,0.00,,---,0.00,0.00,VWS V14.01,2013-10-25 04:03:00,
2013-10-25 00:05:00,44.6,42.4,30.16,SW,232,0.0,0.0,92,0.00,,---,0.00,0.00,VWS V14.01,2013-10-25 04:05:00,
2013-10-25 00:08:00,44.4,42.2,30.16,SW,232,0.0,0.0,92,0.00,,---,0.00,0.00,VWS V14.01,2013-10-25 04:08:00,
2013-10-25 00:10:00,44.4,42.2,30.16,SW,232,0.0,0.0,92,0.00,,---,0.00,0.00,VWS V14.01,2013-10-25 04:10:00,
2013-10-25 00:13:00,44.6,42.4,30.16,SW,232,0.0,0.0,92,0.00,,---,0.00,0.00,VWS V14.01,2013-10-25 04:13:00,
2013-10-25 00:15:00,44.7,42.8,30.16,SW,232,0.0,0.0,93,0.00,,---,0.00,0.00,VWS V14.01,2013-10-25 04:15:00,
2013-10-25 00:19:00,45.0,43.1,30.16,SW,232,0.0,0.0,93,0.00,,---,0.00,0.00,VWS V14.01,2013-10-25 04:19:00,
2013-10-25 00:20:00,45.0,43.1,30.16,SW,232,0.0,0.0,93,0.00,,---,0.00,0.00,VWS V14.01,2013-10-25 04:20:00,
2013-10-25 00:24:00,45.1,43.2,30.16,SW,232,0.0,0.0,93,0.00,,---,0.00,0.00,VWS V14.01,2013-10-25 04:24:00,
2013-10-25 00:25:00,45.1,43.2,30.17,SW,232,0.0,0.0,93,0.00,,---,0.00,0.00,VWS V14.01,2013-10-25 04:25:00,
2013-10-25 00:29:00,45.0,43.1,30.16,SW,232,0.0,0.0,93,0.00,,---,0.00,0.00,VWS V14.01,2013-10-25 04:29:00,
2013-10-25 00:30:00,45.0,43.1,30.17,SW,232,0.0,0.0,93,0.00,,---,0.00,0.00,VWS V14.01,2013-10-25 04:30:00,
2013-10-25 00:34:00,44.9,43.0,30.16,SW,232,0.0,0.0,93,0.00,,---,0.00,0.00,VWS V14.01,2013-10-25 04:34:00,
2013-10-25 00:35:00,44.9,43.0,30.17,SW,232,0.0,0.0,93,0.00,,---,0.00,0.00,VWS V14.01,2013-10-25 04:35:00,
2013-10-25 00:39:00,44.9,43.0,30.17,SW,232,0.0,0.0,93,0.00,,---,0.00,0.00,VWS V14.01,2013-10-25 04:39:00,
2013-10-25 00:40:00,44.9,43.0,30.17,SW,232,0.0,0.0,93,0.00,,---,0.00,0.00,VWS V14.01,2013-10-25 04:40:00,
2013-10-25 00:44:00,44.8,42.9,30.17,SW,232,0.0,0.0,93,0.00,,---,0.00,0.00,VWS V14.01,2013-10-25 04:44:00,
2013-10-25 00:45:00,44.8,42.9,30.17,SW,232,0.0,0.0,93,0.00,,---,0.00,0.00,VWS V14.01,2013-10-25 04:45:00,
2013-10-25 00:49:00,44.8,42.9,30.17,SW,232,0.0,0.0,93,0.00,,---,0.00,0.00,VWS V14.01,2013-10-25 04:49:00,
2013-10-25 00:50:00,44.9,43.0,30.17,SW,232,0.0,0.0,93,0.00,,---,0.00,0.00,VWS V14.01,2013-10-25 04:50:00,
2013-10-25 00:54:00,44.9,43.0,30.17,SW,232,0.0,0.0,93,0.00,,---,0.00,0.00,VWS V14.01,2013-10-25 04:54:00,
2013-10-25 00:55:00,44.9,43.0,30.17,SW,232,0.0,0.0,93,0.00,,---,0.00,0.00,VWS V14.01,2013-10-25 04:55:00,
2013-10-25 00:59:00,45.0,43.1,30.17,SW,232,0.0,0.0,93,0.00,,---,0.00,0.00,VWS V14.01,2013-10-25 04:59:00,
2013-10-25 01:00:00,45.0,43.1,30.17,SW,232,0.0,0.0,93,0.00,,---,0.00,0.00,VWS V14.01,2013-10-25 05:00:00,
2013-10-25 01:04:00,45.2,43.6,30.17,SW,232,0.0,0.0,94,0.00,,---,0.00,0.00,VWS V14.01,2013-10-25 05:04:00,
2013-10-25 01:05:00,45.2,43.6,30.17,SW,232,0.0,0.0,94,0.00,,---,0.00,0.00,VWS V14.01,2013-10-25 05:05:00,
2013-10-25 01:09:00,45.2,43.3,30.17,SW,232,0.0,0.0,93,0.00,,---,0.00,0.00,VWS V14.01,2013-10-25 05:09:00,
2013-10-25 01:10:00,45.2,43.3,30.17,SW,232,0.0,0.0,93,0.00,,---,0.00,0.00,VWS V14.01,2013-10-25 05:10:00,
2013-10-25 01:15:00,44.9,43.0,30.17,SW,232,0.0,0.0,93,0.00,,---,0.00,0.00,VWS V14.01,2013-10-25 05:15:00,
2013-10-25 01:20:00,45.2,43.3,30.17,SW,232,0.0,0.0,93,0.00,,---,0.00,0.00,VWS V14.01,2013-10-25 05:20:00,
2013-10-25 01:25:00,45.4,43.2,30.17,SW,232,0.0,0.0,92,0.00,,---,0.00,0.00,VWS V14.01,2013-10-25 05:25:00,
2013-10-25 01:30:00,45.6,43.1,30.17,SW,232,0.0,0.0,91,0.00,,---,0.00,0.00,VWS V14.01,2013-10-25 05:30:00,
2013-10-25 01:35:00,45.6,43.1,30.17,SW,232,0.0,0.0,91,0.00,,---,0.00,0.00,VWS V14.01,2013-10-25 05:35:00,
2013-10-25 01:40:00,45.8,43.3,30.17,SW,232,0.0,0.0,91,0.00,,---,0.00,0.00,VWS V14.01,2013-10-25 05:40:00,
2013-10-25 01:45:00,45.9,43.4,30.17,SW,232,0.0,0.0,91,0.00,,---,0.00,0.00,VWS V14.01,2013-10-25 05:45:00,
2013-10-25 01:50:00,46.0,43.2,30.18,SW,232,0.0,0.0,90,0.00,,---,0.00,0.00,VWS V14.01,2013-10-25 05:50:00,
2013-10-25 01:55:00,46.1,43.3,30.17,SW,232,0.0,0.0,90,0.00,,---,0.00,0.00,VWS V14.01,2013-10-25 05:55:00,
2013-10-25 02:00:00,46.4,43.6,30.18,SW,232,0.0,0.0,90,0.00,,---,0.00,0.00,VWS V14.01,2013-10-25 06:00:00,
2013-10-25 02:05:00,46.9,43.8,30.18,SW,232,0.0,0.0,89,0.00,,---,0.00,0.00,VWS V14.01,2013-10-25 06:05:00,
2013-10-25 02:10:00,47.0,43.6,30.18,SW,232,0.0,0.0,88,0.00,,---,0.00,0.00,VWS V14.01,2013-10-25 06:10:00,
2013-10-25 02:15:00,46.9,43.5,30.18,SW,232,0.0,0.0,88,0.00,,---,0.00,0.00,VWS V14.01,2013-10-25 06:15:00,
2013-10-25 02:20:00,46.8,43.4,30.17,SW,232,0.0,0.0,88,0.00,,---,0.00,0.00,VWS V14.01,2013-10-25 06:20:00,
2013-10-25 02:25:00,46.6,43.2,30.17,SW,232,0.0,0.0,88,0.00,,---,0.00,0.00,VWS V14.01,2013-10-25 06:25:00,
2013-10-25 02:26:00,46.6,43.2,30.17,SW,232,0.0,0.0,88,0.00,,---,0.00,0.00,VWS V14.01,2013-10-25 06:26:00,
2013-10-25 02:30:00,46.4,43.0,30.17,SW,232,0.0,0.0,88,0.00,,---,0.00,0.00,VWS V14.01,2013-10-25 06:30:00,
2013-10-25 02:31:00,46.3,43.0,30.17,SW,232,0.0,0.0,88,0.00,,---,0.00,0.00,VWS V14.01,2013-10-25 06:31:00,
2013-10-25 02:35:00,46.1,42.8,30.17,SW,232,0.0,0.0,88,0.00,,---,0.00,0.00,VWS V14.01,2013-10-25 06:35:00,
2013-10-25 02:36:00,46.0,43.0,30.17,SW,232,0.0,0.0,89,0.00,,---,0.00,0.00,VWS V14.01,2013-10-25 06:36:00,
2013-10-25 02:40:00,45.9,42.8,30.18,SW,232,0.0,0.0,89,0.00,,---,0.00,0.00,VWS V14.01,2013-10-25 06:40:00,
2013-10-25 02:41:00,45.8,42.8,30.18,SW,232,0.0,0.0,89,0.00,,---,0.00,0.00,VWS V14.01,2013-10-25 06:41:00,
2013-10-25 02:45:00,45.6,42.5,30.18,SW,232,0.0,0.0,89,0.00,,---,0.00,0.00,VWS V14.01,2013-10-25 06:45:00,
2013-10-25 02:46:00,45.5,42.5,30.17,SW,232,0.0,0.0,89,0.00,,---,0.00,0.00,VWS V14.01,2013-10-25 06:46:00,
2013-10-25 02:50:00,45.3,42.3,30.17,SW,232,0.0,0.0,89,0.00,,---,0.00,0.00,VWS V14.01,2013-10-25 06:50:00,
2013-10-25 02:51:00,45.2,42.5,30.17,SW,232,0.0,0.0,90,0.00,,---,0.00,0.00,VWS V14.01,2013-10-25 06:51:00,
2013-10-25 02:55:00,45.1,42.3,30.17,SW,232,0.0,0.0,90,0.00,,---,0.00,0.00,VWS V14.01,2013-10-25 06:55:00,
2013-10-25 02:56:00,45.0,42.2,30.17,SW,232,0.0,0.0,90,0.00,,---,0.00,0.00,VWS V14.01,2013-10-25 06:56:00,
2013-10-25 03:00:00,44.9,42.2,30.17,SW,232,0.0,0.0,90,0.00,,---,0.00,0.00,VWS V14.01,2013-10-25 07:00:00,
2013-10-25 03:01:00,44.8,42.0,30.17,SW,232,0.0,0.0,90,0.00,,---,0.00,0.00,VWS V14.01,2013-10-25 07:01:00,
2013-10-25 03:05:00,44.7,42.2,30.18,SW,232,0.0,0.0,91,0.00,,---,0.00,0.00,VWS V14.01,2013-10-25 07:05:00,
2013-10-25 03:07:00,44.7,42.2,30.18,SW,232,0.0,0.0,91,0.00,,---,0.00,0.00,VWS V14.01,2013-10-25 07:07:00,
2013-10-25 03:10:00,44.6,42.1,30.18,SW,232,0.0,0.0,91,0.00,,---,0.00,0.00,VWS V14.01,2013-10-25 07:10:00,
2013-10-25 03:12:00,44.6,42.1,30.18,SW,232,0.0,0.0,91,0.00,,---,0.00,0.00,VWS V14.01,2013-10-25 07:12:00,
2013-10-25 03:15:00,44.5,42.0,30.18,SW,232,0.0,0.0,91,0.00,,---,0.00,0.00,VWS V14.01,2013-10-25 07:15:00,
2013-10-25 03:17:00,44.4,41.9,30.18,SW,232,0.0,0.0,91,0.00,,---,0.00,0.00,VWS V14.01,2013-10-25 07:17:00,
2013-10-25 03:20:00,44.4,42.2,30.18,SW,232,0.0,0.0,92,0.00,,---,0.00,0.00,VWS V14.01,2013-10-25 07:20:00,
2013-10-25 03:22:00,44.5,42.3,30.18,SW,232,0.0,0.0,92,0.00,,---,0.00,0.00,VWS V14.01,2013-10-25 07:22:00,
2013-10-25 03:25:00,44.5,42.3,30.18,SW,232,0.0,0.0,92,0.00,,---,0.00,0.00,VWS V14.01,2013-10-25 07:25:00,
2013-10-25 03:27:00,44.5,42.3,30.18,SW,232,0.0,0.0,92,0.00,,---,0.00,0.00,VWS V14.01,2013-10-25 07:27:00,
2013-10-25 03:30:00,44.5,42.3,30.18,SW,232,0.0,0.0,92,0.00,,---,0.00,0.00,VWS V14.01,2013-10-25 07:30:00,
2013-10-25 03:32:00,44.5,42.3,30.18,SW,232,0.0,0.0,92,0.00,,---,0.00,0.00,VWS V14.01,2013-10-25 07:32:00,
2013-10-25 03:35:00,44.6,42.4,30.18,SW,232,0.0,0.0,92,0.00,,---,0.00,0.00,VWS V14.01,2013-10-25 07:35:00,
2013-10-25 03:37:00,44.6,42.4,30.18,SW,232,0.0,0.0,92,0.00,,---,0.00,0.00,VWS V14.01,2013-10-25 07:37:00,
2013-10-25 03:40:00,44.7,42.5,30.18,SW,232,0.0,0.0,92,0.00,,---,0.00,0.00,VWS V14.01,2013-10-25 07:40:00,
2013-10-25 03:42:00,44.9,42.7,30.18,SW,232,0.0,0.0,92,0.00,,---,0.00,0.00,VWS V14.01,2013-10-25 07:42:00,
2013-10-25 03:45:00,45.0,42.8,30.17,SW,232,0.0,0.0,92,0.00,,---,0.00,0.00,VWS V14.01,2013-10-25 07:45:00,
2013-10-25 03:48:00,45.1,42.9,30.18,SW,232,0.0,0.0,92,0.00,,---,0.00,0.00,VWS V14.01,2013-10-25 07:48:00,
2013-10-25 03:50:00,45.2,43.0,30.18,SW,232,0.0,0.0,92,0.00,,---,0.00,0.00,VWS V14.01,2013-10-25 07:50:00,
2013-10-25 03:53:00,45.3,43.1,30.17,SW,232,0.0,0.0,92,0.00,,---,0.00,0.00,VWS V14.01,2013-10-25 07:53:00,
2013-10-25 03:55:00,45.4,43.2,30.18,SW,232,0.0,0.0,92,0.00,,---,0.00,0.00,VWS V14.01,2013-10-25 07:55:00,
2013-10-25 03:58:00,45.5,43.0,30.18,SW,232,0.0,0.0,91,0.00,,---,0.00,0.00,VWS V14.01,2013-10-25 07:58:00,
2013-10-25 04:00:00,45.7,43.2,30.18,SW,232,0.0,0.0,91,0.00,,---,0.00,0.00,VWS V14.01,2013-10-25 08:00:00,
2013-10-25 04:03:00,46.2,43.4,30.18,WSW,240,0.0,1.0,90,0.00,,---,0.00,0.00,VWS V14.01,2013-10-25 08:03:00,
2013-10-25 04:05:00,46.5,43.4,30.18,WSW,241,0.0,1.0,89,0.00,,---,0.00,0.00,VWS V14.01,2013-10-25 08:05:00,
2013-10-25 04:08:00,47.1,43.7,30.18,WSW,241,0.0,0.0,88,0.00,,---,0.00,0.00,VWS V14.01,2013-10-25 08:08:00,
2013-10-25 04:10:00,47.4,43.7,30.18,WSW,241,0.0,0.0,87,0.00,,---,0.00,0.00,VWS V14.01,2013-10-25 08:10:00,
2013-10-25 04:13:00,47.6,43.6,30.18,WSW,241,0.0,0.0,86,0.00,,---,0.00,0.00,VWS V14.01,2013-10-25 08:13:00,
2013-10-25 04:15:00,47.7,43.4,30.18,WSW,241,0.0,0.0,85,0.00,,---,0.00,0.00,VWS V14.01,2013-10-25 08:15:00,
2013-10-25 04:18:00,47.8,43.2,30.17,WSW,241,0.0,0.0,84,0.00,,---,0.00,0.00,VWS V14.01,2013-10-25 08:18:00,
2013-10-25 04:20:00,47.9,43.3,30.18,WSW,241,0.0,0.0,84,0.00,,---,0.00,0.00,VWS V14.01,2013-10-25 08:20:00,
2013-10-25 04:23:00,47.9,43.0,30.18,WSW,241,0.0,0.0,83,0.00,,---,0.00,0.00,VWS V14.01,2013-10-25 08:23:00,
2013-10-25 04:25:00,47.9,43.0,30.18,WSW,241,0.0,0.0,83,0.00,,---,0.00,0.00,VWS V14.01,2013-10-25 08:25:00,
2013-10-25 04:28:00,47.8,42.9,30.17,WSW,241,0.0,0.0,83,0.00,,---,0.00,0.00,VWS V14.01,2013-10-25 08:28:00,
2013-10-25 04:30:00,47.8,42.9,30.17,WSW,241,0.0,0.0,83,0.00,,---,0.00,0.00,VWS V14.01,2013-10-25 08:30:00,
2013-10-25 04:34:00,47.7,42.8,30.18,WSW,241,0.0,0.0,83,0.00,,---,0.00,0.00,VWS V14.01,2013-10-25 08:34:00,
2013-10-25 04:35:00,47.6,42.7,30.18,WSW,241,0.0,0.0,83,0.00,,---,0.00,0.00,VWS V14.01,2013-10-25 08:35:00,
2013-10-25 04:39:00,47.4,42.5,30.18,WSW,241,0.0,0.0,83,0.00,,---,0.00,0.00,VWS V14.01,2013-10-25 08:39:00,
2013-10-25 04:40:00,47.3,42.7,30.18,WSW,241,0.0,0.0,84,0.00,,---,0.00,0.00,VWS V14.01,2013-10-25 08:40:00,
2013-10-25 04:44:00,47.2,42.6,30.18,WSW,242,0.0,0.0,84,0.00,,---,0.00,0.00,VWS V14.01,2013-10-25 08:44:00,
2013-10-25 04:45:00,47.2,42.6,30.19,WSW,242,0.0,0.0,84,0.00,,---,0.00,0.00,VWS V14.01,2013-10-25 08:45:00,
2013-10-25 04:49:00,47.1,42.5,30.18,WSW,242,0.0,0.0,84,0.00,,---,0.00,0.00,VWS V14.01,2013-10-25 08:49:00,
2013-10-25 04:50:00,47.1,42.5,30.19,WSW,242,0.0,0.0,84,0.00,,---,0.00,0.00,VWS V14.01,2013-10-25 08:50:00,
2013-10-25 04:54:00,47.0,42.4,30.18,WSW,242,0.0,0.0,84,0.00,,---,0.00,0.00,VWS V14.01,2013-10-25 08:54:00,
2013-10-25 04:55:00,47.0,42.4,30.18,WSW,242,0.0,0.0,84,0.00,,---,0.00,0.00,VWS V14.01,2013-10-25 08:55:00,
2013-10-25 04:59:00,46.8,42.2,30.19,WSW,242,0.0,0.0,84,0.00,,---,0.00,0.00,VWS V14.01,2013-10-25 08:59:00,
2013-10-25 05:00:00,46.8,42.2,30.19,WSW,242,0.0,0.0,84,0.00,,---,0.00,0.00,VWS V14.01,2013-10-25 09:00:00,
2013-10-25 05:04:00,46.6,42.0,30.19,WSW,242,0.0,0.0,84,0.00,,---,0.00,0.00,VWS V14.01,2013-10-25 09:04:00,
2013-10-25 05:05:00,46.6,42.0,30.19,WSW,242,0.0,0.0,84,0.00,,---,0.00,0.00,VWS V14.01,2013-10-25 09:05:00,
2013-10-25 05:09:00,46.6,42.3,30.19,WSW,242,0.0,0.0,85,0.00,,---,0.00,0.00,VWS V14.01,2013-10-25 09:09:00,
2013-10-25 05:10:00,46.6,42.3,30.19,WSW,242,0.0,0.0,85,0.00,,---,0.00,0.00,VWS V14.01,2013-10-25 09:10:00,
2013-10-25 05:14:00,46.4,42.1,30.20,WSW,242,0.0,0.0,85,0.00,,---,0.00,0.00,VWS V14.01,2013-10-25 09:14:00,
2013-10-25 05:15:00,46.4,42.1,30.20,WSW,242,0.0,0.0,85,0.00,,---,0.00,0.00,VWS V14.01,2013-10-25 09:15:00,
2013-10-25 05:19:00,46.3,42.0,30.20,WSW,242,0.0,0.0,85,0.00,,---,0.00,0.00,VWS V14.01,2013-10-25 09:19:00,
2013-10-25 05:20:00,46.3,42.0,30.20,WSW,242,0.0,0.0,85,0.00,,---,0.00,0.00,VWS V14.01,2013-10-25 09:20:00,
2013-10-25 05:25:00,46.3,42.0,30.20,WSW,242,0.0,0.0,85,0.00,,---,0.00,0.00,VWS V14.01,2013-10-25 09:25:00,
2013-10-25 05:30:00,46.2,42.0,30.20,WSW,242,0.0,0.0,85,0.00,,---,0.00,0.00,VWS V14.01,2013-10-25 09:30:00,
2013-10-25 05:35:00,46.2,42.0,30.20,WSW,242,0.0,0.0,85,0.00,,---,0.00,0.00,VWS V14.01,2013-10-25 09:35:00,
2013-10-25 05:40:00,45.9,41.7,30.21,WSW,242,0.0,0.0,85,0.00,,---,0.00,0.00,VWS V14.01,2013-10-25 09:40:00,
2013-10-25 05:45:00,45.8,41.5,30.21,WSW,242,0.0,0.0,85,0.00,,---,0.00,0.00,VWS V14.01,2013-10-25 09:45:00,
2013-10-25 05:50:00,45.7,41.5,30.22,WSW,242,0.0,0.0,85,0.00,,---,0.00,0.00,VWS V14.01,2013-10-25 09:50:00,
2013-10-25 05:55:00,45.1,41.2,30.22,WSW,242,0.0,0.0,86,0.00,,---,0.00,0.00,VWS V14.01,2013-10-25 09:55:00,
2013-10-25 06:00:00,44.5,41.2,30.22,WSW,242,0.0,0.0,88,0.00,,---,0.00,0.00,VWS V14.01,2013-10-25 10:00:00,
2013-10-25 06:05:00,44.2,40.9,30.22,WSW,242,0.0,0.0,88,0.00,,---,0.00,0.00,VWS V14.01,2013-10-25 10:05:00,
2013-10-25 06:10:00,44.1,40.8,30.22,WSW,242,0.0,0.0,88,0.00,,---,0.00,0.00,VWS V14.01,2013-10-25 10:10:00,
2013-10-25 06:11:00,44.1,40.8,30.22,WSW,242,0.0,0.0,88,0.00,,---,0.00,0.00,VWS V14.01,2013-10-25 10:11:00,
2013-10-25 06:15:00,43.9,40.6,30.22,WSW,242,0.0,0.0,88,0.00,,---,0.00,0.00,VWS V14.01,2013-10-25 10:15:00,
2013-10-25 06:16:00,43.9,40.6,30.22,WSW,242,0.0,0.0,88,0.00,,---,0.00,0.00,VWS V14.01,2013-10-25 10:16:00,
2013-10-25 06:20:00,43.6,40.6,30.22,WSW,242,0.0,0.0,89,0.00,,---,0.00,0.00,VWS V14.01,2013-10-25 10:20:00,
2013-10-25 06:21:00,43.5,40.5,30.22,WSW,242,0.0,0.0,89,0.00,,---,0.00,0.00,VWS V14.01,2013-10-25 10:21:00,
2013-10-25 06:25:00,43.2,40.2,30.23,WSW,242,0.0,0.0,89,0.00,,---,0.00,0.00,VWS V14.01,2013-10-25 10:25:00,
2013-10-25 06:26:00,43.1,40.1,30.23,WSW,242,0.0,0.0,89,0.00,,---,0.00,0.00,VWS V14.01,2013-10-25 10:26:00,
2013-10-25 06:30:00,42.9,40.2,30.23,WSW,242,0.0,0.0,90,0.00,,---,0.00,0.00,VWS V14.01,2013-10-25 10:30:00,
2013-10-25 06:31:00,42.8,40.1,30.23,WSW,242,0.0,0.0,90,0.00,,---,0.00,0.00,VWS V14.01,2013-10-25 10:31:00,
2013-10-25 06:35:00,42.6,39.9,30.23,WSW,242,0.0,0.0,90,0.00,,---,0.00,0.00,VWS V14.01,2013-10-25 10:35:00,
2013-10-25 06:36:00,42.6,39.9,30.23,WSW,242,0.0,0.0,90,0.00,,---,0.00,0.00,VWS V14.01,2013-10-25 10:36:00,
2013-10-25 06:40:00,42.5,40.1,30.23,WSW,242,0.0,0.0,91,0.00,,---,0.00,0.00,VWS V14.01,2013-10-25 10:40:00,
2013-10-25 06:41:00,42.4,40.0,30.23,WSW,242,0.0,0.0,91,0.00,,---,0.00,0.00,VWS V14.01,2013-10-25 10:41:00,
2013-10-25 06:45:00,42.3,39.9,30.23,WSW,242,0.0,0.0,91,0.00,,---,0.00,0.00,VWS V14.01,2013-10-25 10:45:00,
2013-10-25 06:46:00,42.2,39.8,30.23,WSW,242,0.0,0.0,91,0.00,,---,0.00,0.00,VWS V14.01,2013-10-25 10:46:00,
2013-10-25 06:50:00,41.9,39.5,30.23,WSW,242,0.0,0.0,91,0.00,,---,0.00,0.00,VWS V14.01,2013-10-25 10:50:00,
2013-10-25 06:51:00,41.8,39.4,30.23,WSW,242,0.0,0.0,91,0.00,,---,0.00,0.00,VWS V14.01,2013-10-25 10:51:00,
2013-10-25 06:55:00,41.7,39.3,30.24,WSW,242,0.0,0.0,91,0.00,,---,0.00,0.00,VWS V14.01,2013-10-25 10:55:00,
2013-10-25 06:57:00,41.7,39.3,30.24,WSW,242,0.0,0.0,91,0.00,,---,0.00,0.00,VWS V14.01,2013-10-25 10:57:00,
2013-10-25 07:00:00,41.6,39.2,30.25,WSW,242,0.0,0.0,91,0.00,,---,0.00,0.00,VWS V14.01,2013-10-25 11:00:00,
2013-10-25 07:02:00,41.5,39.1,30.25,WSW,242,0.0,0.0,91,0.00,,---,0.00,0.00,VWS V14.01,2013-10-25 11:02:00,
2013-10-25 07:05:00,41.4,39.0,30.25,WSW,242,0.0,0.0,91,0.00,,---,0.00,0.00,VWS V14.01,2013-10-25 11:05:00,
2013-10-25 07:07:00,41.3,39.2,30.25,WSW,242,0.0,0.0,92,0.00,,---,0.00,0.00,VWS V14.01,2013-10-25 11:07:00,
2013-10-25 07:10:00,41.2,39.1,30.25,WSW,242,0.0,0.0,92,0.00,,---,0.00,0.00,VWS V14.01,2013-10-25 11:10:00,
2013-10-25 07:12:00,41.1,39.0,30.25,WSW,242,0.0,0.0,92,0.00,,---,0.00,0.00,VWS V14.01,2013-10-25 11:12:00,
2013-10-25 07:15:00,40.9,38.8,30.25,WSW,242,0.0,0.0,92,0.00,,---,0.00,0.00,VWS V14.01,2013-10-25 11:15:00,
2013-10-25 07:17:00,40.9,38.8,30.25,WSW,242,0.0,0.0,92,0.00,,---,0.00,0.00,VWS V14.01,2013-10-25 11:17:00,
2013-10-25 07:20:00,40.7,38.6,30.25,WSW,242,0.0,0.0,92,0.00,,---,0.00,0.00,VWS V14.01,2013-10-25 11:20:00,
2013-10-25 07:22:00,40.6,38.5,30.26,WSW,242,0.0,0.0,92,0.00,,---,0.00,0.00,VWS V14.01,2013-10-25 11:22:00,
2013-10-25 07:25:00,40.4,38.3,30.26,WSW,242,0.0,0.0,92,0.00,,---,0.00,0.00,VWS V14.01,2013-10-25 11:25:00,
2013-10-25 07:27:00,40.3,38.2,30.26,WSW,242,0.0,0.0,92,0.00,,---,0.00,0.00,VWS V14.01,2013-10-25 11:27:00,
2013-10-25 07:30:00,40.1,38.0,30.26,WSW,242,0.0,0.0,92,0.00,,---,0.00,0.00,VWS V14.01,2013-10-25 11:30:00,
2013-10-25 07:32:00,40.1,38.0,30.26,WSW,242,0.0,0.0,92,0.00,,---,0.00,0.00,VWS V14.01,2013-10-25 11:32:00,
2013-10-25 07:35:00,40.2,38.1,30.26,WSW,242,0.0,0.0,92,0.00,,---,0.00,0.00,VWS V14.01,2013-10-25 11:35:00,
2013-10-25 07:37:00,40.2,38.3,30.26,WSW,242,0.0,0.0,93,0.00,,---,0.00,0.00,VWS V14.01,2013-10-25 11:37:00,
2013-10-25 07:40:00,40.4,38.5,30.26,WSW,242,0.0,0.0,93,0.00,,---,0.00,5.00,VWS V14.01,2013-10-25 11:40:00,
2013-10-25 07:42:00,40.7,38.8,30.26,WSW,242,0.0,0.0,93,0.00,,---,0.00,7.00,VWS V14.01,2013-10-25 11:42:00,
2013-10-25 07:45:00,41.1,39.2,30.26,WSW,242,0.0,0.0,93,0.00,,---,0.00,7.00,VWS V14.01,2013-10-25 11:45:00,
2013-10-25 07:47:00,41.4,39.5,30.27,WSW,242,0.0,0.0,93,0.00,,---,0.00,9.00,VWS V14.01,2013-10-25 11:47:00,
2013-10-25 07:50:00,41.6,39.5,30.27,WSW,242,0.0,0.0,92,0.00,,---,0.00,11.00,VWS V14.01,2013-10-25 11:50:00,
2013-10-25 07:53:00,41.5,39.1,30.27,WSW,242,0.0,0.0,91,0.00,,---,0.00,12.00,VWS V14.01,2013-10-25 11:53:00,
2013-10-25 07:55:00,41.6,39.2,30.27,WSW,242,0.0,0.0,91,0.00,,---,0.00,14.00,VWS V14.01,2013-10-25 11:55:00,
2013-10-25 07:58:00,41.7,39.0,30.27,WSW,242,0.0,0.0,90,0.00,,---,0.00,16.00,VWS V14.01,2013-10-25 11:58:00,
2013-10-25 08:00:00,41.6,38.9,30.27,WSW,242,0.0,0.0,90,0.00,,---,0.00,19.00,VWS V14.01,2013-10-25 12:00:00,
2013-10-25 08:03:00,41.6,38.9,30.27,WSW,242,0.0,0.0,90,0.00,,---,0.00,32.00,VWS V14.01,2013-10-25 12:03:00,
2013-10-25 08:05:00,41.6,38.9,30.27,WSW,242,0.0,0.0,90,0.00,,---,0.00,42.00,VWS V14.01,2013-10-25 12:05:00,
2013-10-25 08:08:00,41.9,39.2,30.28,WSW,243,0.0,2.0,90,0.00,,---,0.00,49.00,VWS V14.01,2013-10-25 12:08:00,
2013-10-25 08:10:00,42.2,39.5,30.28,WSW,244,0.0,2.0,90,0.00,,---,0.00,56.00,VWS V14.01,2013-10-25 12:10:00,
2013-10-25 08:13:00,42.8,39.8,30.28,WSW,246,0.0,2.0,89,0.00,,---,0.00,63.00,VWS V14.01,2013-10-25 12:13:00,
2013-10-25 08:15:00,43.1,39.8,30.28,WSW,246,0.0,2.0,88,0.00,,---,0.00,72.00,VWS V14.01,2013-10-25 12:15:00,
2013-10-25 08:18:00,43.5,39.9,30.28,WSW,246,0.0,0.0,87,0.00,,---,0.00,81.00,VWS V14.01,2013-10-25 12:18:00,
2013-10-25 08:20:00,43.6,40.0,30.28,WSW,246,0.0,0.0,87,0.00,,---,0.00,86.00,VWS V14.01,2013-10-25 12:20:00,
2013-10-25 08:23:00,44.0,40.1,30.28,West,277,0.0,3.0,86,0.00,,---,0.00,98.00,VWS V14.01,2013-10-25 12:23:00,
2013-10-25 08:25:00,44.1,40.2,30.28,West,278,0.0,3.0,86,0.00,,---,0.00,104.00,VWS V14.01,2013-10-25 12:25:00,
2013-10-25 08:28:00,44.4,40.2,30.28,West,279,0.0,2.0,85,0.00,,---,0.00,116.00,VWS V14.01,2013-10-25 12:28:00,
2013-10-25 08:30:00,44.5,40.0,30.29,West,279,0.0,2.0,84,0.00,,---,0.00,123.00,VWS V14.01,2013-10-25 12:30:00,
2013-10-25 08:33:00,44.8,40.0,30.29,West,280,0.0,0.0,83,0.00,,---,0.00,134.00,VWS V14.01,2013-10-25 12:33:00,
2013-10-25 08:35:00,45.0,40.2,30.29,West,280,0.0,0.0,83,0.00,,---,0.00,141.00,VWS V14.01,2013-10-25 12:35:00,
2013-10-25 08:38:00,45.4,40.2,30.29,NW,304,2.0,5.0,82,0.00,,---,0.00,151.00,VWS V14.01,2013-10-25 12:38:00,
2013-10-25 08:40:00,45.6,40.1,30.29,NW,310,3.0,5.0,81,0.00,,---,0.00,158.00,VWS V14.01,2013-10-25 12:40:00,
2013-10-25 08:44:00,46.0,40.5,30.30,NW,312,0.0,3.0,81,0.00,,---,0.00,172.00,VWS V14.01,2013-10-25 12:44:00,
2013-10-25 08:45:00,46.0,40.2,30.30,NW,309,0.0,4.0,80,0.00,,---,0.00,178.00,VWS V14.01,2013-10-25 12:45:00,
2013-10-25 08:49:00,46.3,40.5,30.30,NW,314,0.0,4.0,80,0.00,,---,0.00,192.00,VWS V14.01,2013-10-25 12:49:00,
2013-10-25 08:50:00,46.4,40.2,30.30,NW,316,0.0,4.0,79,0.00,,---,0.00,195.00,VWS V14.01,2013-10-25 12:50:00,
2013-10-25 08:54:00,46.8,40.3,30.30,NW,324,4.0,5.0,78,0.00,,---,0.00,209.00,VWS V14.01,2013-10-25 12:54:00,
2013-10-25 08:55:00,46.9,40.4,30.31,North,9,0.0,10.0,78,0.00,,---,0.00,211.00,VWS V14.01,2013-10-25 12:55:00,
2013-10-25 08:59:00,47.3,39.8,30.31,North,5,0.0,4.0,75,0.00,,---,0.00,229.00,VWS V14.01,2013-10-25 12:59:00,
2013-10-25 09:00:00,47.4,39.5,30.31,North,10,0.0,4.0,74,0.00,,---,0.00,230.00,VWS V14.01,2013-10-25 13:00:00,
2013-10-25 09:04:00,47.8,39.9,30.31,NNE,13,0.0,5.0,74,0.00,,---,0.00,248.00,VWS V14.01,2013-10-25 13:04:00,
2013-10-25 09:05:00,47.9,40.0,30.31,North,11,0.0,5.0,74,0.00,,---,0.00,253.00,VWS V14.01,2013-10-25 13:05:00,
2013-10-25 09:09:00,48.3,39.7,30.30,North,355,3.0,6.0,72,0.00,,---,0.00,269.00,VWS V14.01,2013-10-25 13:09:00,
2013-10-25 09:10:00,48.3,39.7,30.30,North,5,6.0,11.0,72,0.00,,---,0.00,272.00,VWS V14.01,2013-10-25 13:10:00,
2013-10-25 09:14:00,48.6,39.3,30.31,North,5,1.0,8.0,70,0.00,,---,0.00,287.00,VWS V14.01,2013-10-25 13:14:00,
2013-10-25 09:15:00,48.7,39.4,30.31,North,5,2.0,8.0,70,0.00,,---,0.00,292.00,VWS V14.01,2013-10-25 13:15:00,
2013-10-25 09:19:00,49.1,39.4,30.31,NNE,26,0.0,11.0,69,0.00,,---,0.00,308.00,VWS V14.01,2013-10-25 13:19:00,
2013-10-25 09:20:00,49.2,39.5,30.31,NNE,19,3.0,11.0,69,0.00,,---,0.00,309.00,VWS V14.01,2013-10-25 13:20:00,
2013-10-25 09:25:00,49.6,39.5,30.31,NNE,28,0.0,7.0,68,0.00,,---,0.00,327.00,VWS V14.01,2013-10-25 13:25:00,
2013-10-25 09:30:00,50.1,39.6,30.31,NNE,31,0.0,3.0,67,0.00,,---,0.00,346.00,VWS V14.01,2013-10-25 13:30:00,
2013-10-25 09:35:00,50.4,38.7,30.32,North,5,0.0,7.0,64,0.00,,---,0.00,366.00,VWS V14.01,2013-10-25 13:35:00,
2013-10-25 09:40:00,50.8,39.1,30.32,North,5,0.0,10.0,64,0.00,,---,0.00,381.00,VWS V14.01,2013-10-25 13:40:00,
2013-10-25 09:45:00,51.5,39.3,30.32,North,5,8.0,8.0,63,0.00,,---,0.00,401.00,VWS V14.01,2013-10-25 13:45:00,
2013-10-25 09:50:00,51.7,38.7,30.32,NE,36,3.0,8.0,61,0.00,,---,0.00,417.00,VWS V14.01,2013-10-25 13:50:00,
2013-10-25 09:55:00,51.8,38.4,30.32,NNE,17,0.0,5.0,60,0.00,,---,0.00,431.00,VWS V14.01,2013-10-25 13:55:00,
2013-10-25 10:00:00,52.2,38.8,30.31,NNE,19,0.0,9.0,60,0.00,,---,0.00,446.00,VWS V14.01,2013-10-25 14:00:00,
2013-10-25 10:05:00,53.1,39.2,30.32,NNE,25,1.0,1.0,59,0.00,,---,0.00,462.00,VWS V14.01,2013-10-25 14:05:00,
2013-10-25 10:10:00,53.3,39.3,30.32,NNE,17,0.0,3.0,59,0.00,,---,0.00,478.00,VWS V14.01,2013-10-25 14:10:00,
2013-10-25 10:15:00,53.6,39.2,30.32,North,360,0.0,4.0,58,0.00,,---,0.00,496.00,VWS V14.01,2013-10-25 14:15:00,
2013-10-25 10:20:00,53.9,39.0,30.32,North,5,0.0,9.0,57,0.00,,---,0.00,512.00,VWS V14.01,2013-10-25 14:20:00,
2013-10-25 10:25:00,54.0,38.7,30.32,North,11,0.0,7.0,56,0.00,,---,0.00,526.00,VWS V14.01,2013-10-25 14:25:00,
2013-10-25 10:30:00,54.3,38.5,30.32,NNE,15,10.0,13.0,55,0.00,,---,0.00,540.00,VWS V14.01,2013-10-25 14:30:00,
2013-10-25 10:35:00,54.2,38.9,30.32,North,11,7.0,13.0,56,0.00,,---,0.00,550.00,VWS V14.01,2013-10-25 14:35:00,
2013-10-25 10:40:00,54.5,38.2,30.32,NNE,22,8.0,16.0,54,0.00,,---,0.00,564.00,VWS V14.01,2013-10-25 14:40:00,
2013-10-25 10:45:00,54.9,39.0,30.32,NNE,28,4.0,18.0,55,0.00,,---,0.00,578.00,VWS V14.01,2013-10-25 14:45:00,
2013-10-25 10:50:00,54.8,38.5,30.32,NNE,16,4.0,11.0,54,0.00,,---,0.00,587.00,VWS V14.01,2013-10-25 14:50:00,
2013-10-25 10:55:00,55.0,38.2,30.32,North,360,0.0,15.0,53,0.00,,---,0.00,606.00,VWS V14.01,2013-10-25 14:55:00,
2013-10-25 11:00:00,55.2,37.4,30.32,NNE,30,11.0,11.0,51,0.00,,---,0.00,617.00,VWS V14.01,2013-10-25 15:00:00,
2013-10-25 11:05:00,55.0,37.7,30.32,NNE,16,0.0,0.0,52,0.00,,---,0.00,624.00,VWS V14.01,2013-10-25 15:05:00,
2013-10-25 11:10:00,55.7,37.9,30.32,North,11,0.0,0.0,51,0.00,,---,0.00,640.00,VWS V14.01,2013-10-25 15:10:00,
2013-10-25 11:15:00,56.0,37.6,30.32,NNE,30,0.0,9.0,50,0.00,,---,0.00,649.00,VWS V14.01,2013-10-25 15:15:00,
2013-10-25 11:20:00,56.0,38.2,30.32,NNE,22,0.0,10.0,51,0.00,,---,0.00,661.00,VWS V14.01,2013-10-25 15:20:00,
2013-10-25 11:21:00,56.1,38.2,30.32,North,349,0.0,0.0,51,0.00,,---,0.00,661.00,VWS V14.01,2013-10-25 15:21:00,
2013-10-25 11:25:00,56.1,37.7,30.32,North,5,0.0,4.0,50,0.00,,---,0.00,670.00,VWS V14.01,2013-10-25 15:25:00,
2013-10-25 11:26:00,56.4,39.0,30.32,North,9,0.0,1.0,52,0.00,,---,0.00,670.00,VWS V14.01,2013-10-25 15:26:00,
2013-10-25 11:30:00,56.1,37.2,30.32,ENE,78,0.0,3.0,49,0.00,,---,0.00,680.00,VWS V14.01,2013-10-25 15:30:00,
2013-10-25 11:31:00,56.2,37.8,30.32,North,5,1.0,6.0,50,0.00,,---,0.00,680.00,VWS V14.01,2013-10-25 15:31:00,
2013-10-25 11:35:00,56.9,38.5,30.32,NE,55,0.0,10.0,50,0.00,,---,0.00,686.00,VWS V14.01,2013-10-25 15:35:00,
2013-10-25 11:36:00,57.2,38.2,30.32,ENE,59,0.0,0.0,49,0.00,,---,0.00,689.00,VWS V14.01,2013-10-25 15:36:00,
2013-10-25 11:40:00,57.4,37.9,30.32,North,10,0.0,11.0,48,0.00,,---,0.00,698.00,VWS V14.01,2013-10-25 15:40:00,
2013-10-25 11:41:00,57.4,38.4,30.32,North,11,0.0,0.0,49,0.00,,---,0.00,698.00,VWS V14.01,2013-10-25 15:41:00,
2013-10-25 11:45:00,57.7,38.2,30.32,SE,126,0.0,3.0,48,0.00,,---,0.00,701.00,VWS V14.01,2013-10-25 15:45:00,
2013-10-25 11:46:00,57.7,38.7,30.32,East,98,0.0,0.0,49,0.00,,---,0.00,705.00,VWS V14.01,2013-10-25 15:46:00,
2013-10-25 11:50:00,57.8,37.7,30.32,North,355,0.0,5.0,47,0.00,,---,0.00,710.00,VWS V14.01,2013-10-25 15:50:00,
2013-10-25 11:51:00,57.7,38.2,30.32,East,97,0.0,2.0,48,0.00,,---,0.00,712.00,VWS V14.01,2013-10-25 15:51:00,
2013-10-25 11:55:00,57.3,37.8,30.32,North,5,12.0,12.0,48,0.00,,---,0.00,719.00,VWS V14.01,2013-10-25 15:55:00,
2013-10-25 11:56:00,57.3,37.3,30.32,NNW,336,8.0,12.0,47,0.00,,---,0.00,721.00,VWS V14.01,2013-10-25 15:56:00,
2013-10-25 12:00:00,57.5,38.0,30.32,ENE,62,3.0,12.0,48,0.00,,---,0.00,722.00,VWS V14.01,2013-10-25 16:00:00,
2013-10-25 12:02:00,57.2,37.2,30.33,ENE,62,0.0,3.0,47,0.00,,---,0.00,726.00,VWS V14.01,2013-10-25 16:02:00,
2013-10-25 12:05:00,56.8,36.8,30.32,NNW,333,0.0,15.0,47,0.00,,---,0.00,731.00,VWS V14.01,2013-10-25 16:05:00,
2013-10-25 12:07:00,57.1,37.6,30.33,North,355,9.0,11.0,48,0.00,,---,0.00,731.00,VWS V14.01,2013-10-25 16:07:00,
2013-10-25 12:10:00,57.3,37.3,30.32,NNE,14,5.0,11.0,47,0.00,,---,0.00,733.00,VWS V14.01,2013-10-25 16:10:00,
2013-10-25 12:12:00,57.5,37.5,30.32,North,9,4.0,9.0,47,0.00,,---,0.00,738.00,VWS V14.01,2013-10-25 16:12:00,
2013-10-25 12:15:00,57.4,36.8,30.32,NNW,345,2.0,9.0,46,0.00,,---,0.00,742.00,VWS V14.01,2013-10-25 16:15:00,
2013-10-25 12:17:00,57.1,37.1,30.33,North,5,1.0,5.0,47,0.00,,---,0.00,747.00,VWS V14.01,2013-10-25 16:17:00,
2013-10-25 12:20:00,57.1,37.6,30.32,NNE,14,0.0,9.0,48,0.00,,---,0.00,749.00,VWS V14.01,2013-10-25 16:20:00,
2013-10-25 12:22:00,57.3,37.8,30.32,North,355,4.0,8.0,48,0.00,,---,0.00,752.00,VWS V14.01,2013-10-25 16:22:00,
2013-10-25 12:25:00,57.7,37.6,30.32,NE,44,0.0,9.0,47,0.00,,---,0.00,752.00,VWS V14.01,2013-10-25 16:25:00,
2013-10-25 12:27:00,58.2,38.1,30.32,North,5,10.0,13.0,47,0.00,,---,0.00,749.00,VWS V14.01,2013-10-25 16:27:00,
2013-10-25 12:30:00,58.2,37.5,30.32,WNW,288,2.0,13.0,46,0.00,,---,0.00,758.00,VWS V14.01,2013-10-25 16:30:00,
2013-10-25 12:32:00,58.0,37.4,30.32,NNE,16,5.0,10.0,46,0.00,,---,0.00,754.00,VWS V14.01,2013-10-25 16:32:00,
2013-10-25 12:35:00,58.0,36.8,30.32,North,5,0.0,12.0,45,0.00,,---,0.00,756.00,VWS V14.01,2013-10-25 16:35:00,
2013-10-25 12:37:00,58.0,37.4,30.32,NNE,22,0.0,3.0,46,0.00,,---,0.00,758.00,VWS V14.01,2013-10-25 16:37:00,
2013-10-25 12:40:00,57.9,36.7,30.32,North,360,0.0,5.0,45,0.00,,---,0.00,772.00,VWS V14.01,2013-10-25 16:40:00,
2013-10-25 12:42:00,58.0,36.2,30.32,NNW,339,4.0,8.0,44,0.00,,---,0.00,768.00,VWS V14.01,2013-10-25 16:42:00,
2013-10-25 12:45:00,58.2,36.4,30.32,NNE,24,0.0,12.0,44,0.00,,---,0.00,765.00,VWS V14.01,2013-10-25 16:45:00,
2013-10-25 12:47:00,58.3,37.6,30.32,North,351,0.0,8.0,46,0.00,,---,0.00,772.00,VWS V14.01,2013-10-25 16:47:00,
2013-10-25 12:50:00,58.7,37.4,30.32,NNE,13,0.0,9.0,45,0.00,,---,0.00,773.00,VWS V14.01,2013-10-25 16:50:00,
2013-10-25 12:52:00,58.6,36.8,30.32,North,360,0.0,5.0,44,0.00,,---,0.00,777.00,VWS V14.01,2013-10-25 16:52:00,
2013-10-25 12:55:00,58.7,37.4,30.32,NNE,15,2.0,6.0,45,0.00,,---,0.00,779.00,VWS V14.01,2013-10-25 16:55:00,
2013-10-25 12:57:00,58.9,37.0,30.32,North,355,9.0,10.0,44,0.00,,---,0.00,788.00,VWS V14.01,2013-10-25 16:57:00,
2013-10-25 13:00:00,59.0,36.6,30.32,NW,319,0.0,10.0,43,0.00,,---,0.00,786.00,VWS V14.01,2013-10-25 17:00:00,
2013-10-25 13:03:00,58.9,38.2,30.32,ESE,107,0.0,4.0,46,0.00,,---,0.00,789.00,VWS V14.01,2013-10-25 17:03:00,
2013-10-25 13:05:00,59.4,38.1,30.32,ESE,113,0.0,4.0,45,0.00,,---,0.00,791.00,VWS V14.01,2013-10-25 17:05:00,
2013-10-25 13:08:00,59.7,36.6,30.32,NNW,330,2.0,8.0,42,0.00,,---,0.00,795.00,VWS V14.01,2013-10-25 17:08:00,
2013-10-25 13:10:00,59.7,37.2,30.31,NNE,33,4.0,8.0,43,0.00,,---,0.00,800.00,VWS V14.01,2013-10-25 17:10:00,
2013-10-25 13:13:00,59.7,37.2,30.32,North,355,0.0,8.0,43,0.00,,---,0.00,796.00,VWS V14.01,2013-10-25 17:13:00,
2013-10-25 13:15:00,59.9,37.4,30.31,NW,324,2.0,9.0,43,0.00,,---,0.00,798.00,VWS V14.01,2013-10-25 17:15:00,
2013-10-25 13:18:00,60.2,37.0,30.31,SSW,204,0.0,2.0,42,0.00,,---,0.00,800.00,VWS V14.01,2013-10-25 17:18:00,
2013-10-25 13:20:00,60.2,37.0,30.31,North,350,6.0,6.0,42,0.00,,---,0.00,802.00,VWS V14.01,2013-10-25 17:20:00,
2013-10-25 13:23:00,60.0,36.9,30.31,NNE,30,4.0,10.0,42,0.00,,---,0.00,805.00,VWS V14.01,2013-10-25 17:23:00,
2013-10-25 13:25:00,59.6,36.5,30.31,North,355,0.0,10.0,42,0.00,,---,0.00,814.00,VWS V14.01,2013-10-25 17:25:00,
2013-10-25 13:28:00,59.0,36.6,30.30,NNE,17,0.0,6.0,43,0.00,,---,0.00,823.00,VWS V14.01,2013-10-25 17:28:00,
2013-10-25 13:30:00,58.9,36.5,30.30,NE,49,0.0,6.0,43,0.00,,---,0.00,819.00,VWS V14.01,2013-10-25 17:30:00,
2013-10-25 13:33:00,59.1,36.0,30.30,North,5,1.0,13.0,42,0.00,,---,0.00,766.00,VWS V14.01,2013-10-25 17:33:00,
2013-10-25 13:35:00,58.9,36.5,30.30,NNW,337,0.0,13.0,43,0.00,,---,0.00,819.00,VWS V14.01,2013-10-25 17:35:00,
2013-10-25 13:38:00,58.8,37.0,30.30,NNE,18,0.0,8.0,44,0.00,,---,0.00,786.00,VWS V14.01,2013-10-25 17:38:00,
2013-10-25 13:40:00,58.7,35.7,30.30,ESE,114,0.0,8.0,42,0.00,,---,0.00,791.00,VWS V14.01,2013-10-25 17:40:00,
2013-10-25 13:43:00,59.9,37.4,30.30,North,360,8.0,10.0,43,0.00,,---,0.00,809.00,VWS V14.01,2013-10-25 17:43:00,
2013-10-25 13:45:00,60.0,37.5,30.30,NNW,348,5.0,10.0,43,0.00,,---,0.00,819.00,VWS V14.01,2013-10-25 17:45:00,
2013-10-25 13:48:00,60.2,37.0,30.30,NNW,330,0.0,8.0,42,0.00,,---,0.00,849.00,VWS V14.01,2013-10-25 17:48:00,
2013-10-25 13:50:00,59.8,37.3,30.30,NW,321,5.0,8.0,43,0.00,,---,0.00,851.00,VWS V14.01,2013-10-25 17:50:00,
2013-10-25 13:53:00,60.2,37.0,30.30,NNE,19,0.0,5.0,42,0.00,,---,0.00,144.00,VWS V14.01,2013-10-25 17:53:00,
2013-10-25 13:55:00,59.8,37.3,30.30,NNW,340,0.0,8.0,43,0.00,,---,0.00,151.00,VWS V14.01,2013-10-25 17:55:00,
2013-10-25 13:58:00,58.8,37.0,30.29,North,350,5.0,5.0,44,0.00,,---,0.00,132.00,VWS V14.01,2013-10-25 17:58:00,
2013-10-25 14:00:00,58.6,36.8,30.30,NNW,345,0.0,5.0,44,0.00,,---,0.00,127.00,VWS V14.01,2013-10-25 18:00:00,
2013-10-25 14:03:00,57.8,36.0,30.29,NNW,330,0.0,5.0,44,0.00,,---,0.00,125.00,VWS V14.01,2013-10-25 18:03:00,
2013-10-25 14:05:00,57.6,35.9,30.29,NW,326,0.0,5.0,44,0.00,,---,0.00,125.00,VWS V14.01,2013-10-25 18:05:00,
2013-10-25 14:08:00,58.3,36.5,30.29,NW,320,0.0,0.0,44,0.00,,---,0.00,812.00,VWS V14.01,2013-10-25 18:08:00,
2013-10-25 14:10:00,58.9,36.5,30.29,North,355,6.0,8.0,43,0.00,,---,0.00,821.00,VWS V14.01,2013-10-25 18:10:00,
2013-10-25 14:13:00,59.9,36.8,30.29,NNE,17,2.0,9.0,42,0.00,,---,0.00,851.00,VWS V14.01,2013-10-25 18:13:00,
2013-10-25 14:15:00,60.2,36.4,30.29,NNE,32,0.0,9.0,41,0.00,,---,0.00,851.00,VWS V14.01,2013-10-25 18:15:00,
2013-10-25 14:18:00,60.4,36.6,30.29,NNE,32,3.0,10.0,41,0.00,,---,0.00,814.00,VWS V14.01,2013-10-25 18:18:00,
2013-10-25 14:20:00,60.4,37.8,30.29,North,349,6.0,10.0,43,0.00,,---,0.00,824.00,VWS V14.01,2013-10-25 18:20:00,
2013-10-25 14:24:00,60.4,36.6,30.29,NW,326,0.0,9.0,41,0.00,,---,0.00,824.00,VWS V14.01,2013-10-25 18:24:00,
2013-10-25 14:25:00,60.3,36.5,30.29,WNW,286,0.0,9.0,41,0.00,,---,0.00,211.00,VWS V14.01,2013-10-25 18:25:00,
2013-10-25 14:29:00,59.3,36.2,30.28,North,5,5.0,10.0,42,0.00,,---,0.00,241.00,VWS V14.01,2013-10-25 18:29:00,
2013-10-25 14:30:00,59.3,36.8,30.28,NNW,344,10.0,11.0,43,0.00,,---,0.00,279.00,VWS V14.01,2013-10-25 18:30:00,
2013-10-25 14:34:00,59.1,36.7,30.28,WNW,291,0.0,10.0,43,0.00,,---,0.00,795.00,VWS V14.01,2013-10-25 18:34:00,
2013-10-25 14:35:00,59.3,36.8,30.29,NNW,331,0.0,10.0,43,0.00,,---,0.00,795.00,VWS V14.01,2013-10-25 18:35:00,
2013-10-25 14:39:00,59.6,37.1,30.28,North,350,0.0,9.0,43,0.00,,---,0.00,780.00,VWS V14.01,2013-10-25 18:39:00,
2013-10-25 14:40:00,59.7,37.2,30.28,NNW,334,4.0,9.0,43,0.00,,---,0.00,780.00,VWS V14.01,2013-10-25 18:40:00,
2013-10-25 14:44:00,60.6,36.8,30.28,NNW,340,0.0,8.0,41,0.00,,---,0.00,737.00,VWS V14.01,2013-10-25 18:44:00,
2013-10-25 14:45:00,60.7,37.5,30.28,WNW,296,1.0,8.0,42,0.00,,---,0.00,735.00,VWS V14.01,2013-10-25 18:45:00,
2013-10-25 14:49:00,60.9,38.3,30.28,North,355,4.0,8.0,43,0.00,,---,0.00,721.00,VWS V14.01,2013-10-25 18:49:00,
2013-10-25 14:50:00,61.0,38.4,30.28,North,355,10.0,10.0,43,0.00,,---,0.00,717.00,VWS V14.01,2013-10-25 18:50:00,
2013-10-25 14:54:00,60.4,37.2,30.28,NNE,21,2.0,14.0,42,0.00,,---,0.00,761.00,VWS V14.01,2013-10-25 18:54:00,
2013-10-25 14:55:00,60.4,37.2,30.28,North,355,3.0,14.0,42,0.00,,---,0.00,761.00,VWS V14.01,2013-10-25 18:55:00,
2013-10-25 14:59:00,60.8,37.0,30.28,NNE,12,2.0,9.0,41,0.00,,---,0.00,664.00,VWS V14.01,2013-10-25 18:59:00,
2013-10-25 15:00:00,60.8,37.0,30.28,North,5,6.0,9.0,41,0.00,,---,0.00,664.00,VWS V14.01,2013-10-25 19:00:00,
2013-10-25 15:04:00,60.4,36.0,30.28,North,5,3.0,10.0,40,0.00,,---,0.00,151.00,VWS V14.01,2013-10-25 19:04:00,
2013-10-25 15:05:00,60.3,35.9,30.28,North,11,7.0,10.0,40,0.00,,---,0.00,137.00,VWS V14.01,2013-10-25 19:05:00,
2013-10-25 15:10:00,59.4,36.3,30.28,NNE,15,0.0,8.0,42,0.00,,---,0.00,696.00,VWS V14.01,2013-10-25 19:10:00,
2013-10-25 15:15:00,58.9,35.9,30.28,North,360,3.0,3.0,42,0.00,,---,0.00,116.00,VWS V14.01,2013-10-25 19:15:00,
2013-10-25 15:20:00,59.8,36.1,30.28,WNW,296,4.0,6.0,41,0.00,,---,0.00,654.00,VWS V14.01,2013-10-25 19:20:00,
2013-10-25 15:25:00,60.6,34.9,30.28,North,360,2.0,11.0,38,0.00,,---,0.00,619.00,VWS V14.01,2013-10-25 19:25:00,
2013-10-25 15:30:00,60.7,35.6,30.28,NW,318,3.0,4.0,39,0.00,,---,0.00,603.00,VWS V14.01,2013-10-25 19:30:00,
2013-10-25 15:35:00,60.4,35.3,30.28,NNW,342,0.0,0.0,39,0.00,,---,0.00,589.00,VWS V14.01,2013-10-25 19:35:00,
2013-10-25 15:40:00,60.8,36.3,30.28,NNW,330,10.0,10.0,40,0.00,,---,0.00,566.00,VWS V14.01,2013-10-25 19:40:00,
2013-10-25 15:45:00,60.7,36.3,30.28,NNW,344,0.0,4.0,40,0.00,,---,0.00,334.00,VWS V14.01,2013-10-25 19:45:00,
2013-10-25 15:50:00,61.0,35.9,30.28,NE,38,6.0,9.0,39,0.00,,---,0.00,550.00,VWS V14.01,2013-10-25 19:50:00,
2013-10-25 15:55:00,60.7,36.3,30.28,North,355,2.0,9.0,40,0.00,,---,0.00,552.00,VWS V14.01,2013-10-25 19:55:00,
2013-10-25 15:56:00,60.6,36.2,30.28,North,360,2.0,4.0,40,0.00,,---,0.00,559.00,VWS V14.01,2013-10-25 19:56:00,
2013-10-25 16:00:00,60.0,36.2,30.28,NE,40,2.0,9.0,41,0.00,,---,0.00,207.00,VWS V14.01,2013-10-25 20:00:00,
2013-10-25 16:01:00,59.8,36.1,30.28,NNW,331,5.0,11.0,41,0.00,,---,0.00,79.00,VWS V14.01,2013-10-25 20:01:00,
2013-10-25 16:05:00,59.1,34.8,30.28,WNW,284,0.0,11.0,40,0.00,,---,0.00,510.00,VWS V14.01,2013-10-25 20:05:00,
2013-10-25 16:06:00,59.1,34.8,30.28,North,360,1.0,8.0,40,0.00,,---,0.00,510.00,VWS V14.01,2013-10-25 20:06:00,
2013-10-25 16:10:00,59.9,34.9,30.29,NW,316,4.0,8.0,39,0.00,,---,0.00,490.00,VWS V14.01,2013-10-25 20:10:00,
2013-10-25 16:11:00,60.0,35.0,30.28,NE,36,5.0,10.0,39,0.00,,---,0.00,497.00,VWS V14.01,2013-10-25 20:11:00,
2013-10-25 16:15:00,60.4,34.7,30.28,NW,325,3.0,10.0,38,0.00,,---,0.00,483.00,VWS V14.01,2013-10-25 20:15:00,
2013-10-25 16:16:00,60.2,34.5,30.28,NW,315,0.0,6.0,38,0.00,,---,0.00,475.00,VWS V14.01,2013-10-25 20:16:00,
2013-10-25 16:20:00,60.1,33.8,30.28,NNW,329,1.0,6.0,37,0.00,,---,0.00,462.00,VWS V14.01,2013-10-25 20:20:00,
2013-10-25 16:21:00,59.9,33.6,30.28,NNW,329,0.0,1.0,37,0.00,,---,0.00,455.00,VWS V14.01,2013-10-25 20:21:00,
2013-10-25 16:25:00,60.0,35.0,30.28,NNW,327,0.0,1.0,39,0.00,,---,0.00,439.00,VWS V14.01,2013-10-25 20:25:00,
2013-10-25 16:26:00,60.2,35.2,30.28,NW,325,2.0,5.0,39,0.00,,---,0.00,436.00,VWS V14.01,2013-10-25 20:26:00,
2013-10-25 16:30:00,60.3,35.9,30.28,NW,306,4.0,6.0,40,0.00,,---,0.00,427.00,VWS V14.01,2013-10-25 20:30:00,
2013-10-25 16:31:00,60.2,35.2,30.28,NNE,16,9.0,9.0,39,0.00,,---,0.00,424.00,VWS V14.01,2013-10-25 20:31:00,
2013-10-25 16:35:00,60.2,35.8,30.28,NNE,30,2.0,10.0,40,0.00,,---,0.00,413.00,VWS V14.01,2013-10-25 20:35:00,
2013-10-25 16:36:00,60.2,35.8,30.28,NNE,20,0.0,3.0,40,0.00,,---,0.00,406.00,VWS V14.01,2013-10-25 20:36:00,
2013-10-25 16:40:00,60.2,35.2,30.28,NNE,21,0.0,9.0,39,0.00,,---,0.00,390.00,VWS V14.01,2013-10-25 20:40:00,
2013-10-25 16:42:00,60.4,35.3,30.28,NNE,26,3.0,5.0,39,0.00,,---,0.00,385.00,VWS V14.01,2013-10-25 20:42:00,
2013-10-25 16:45:00,60.3,34.6,30.28,North,9,0.0,9.0,38,0.00,,---,0.00,371.00,VWS V14.01,2013-10-25 20:45:00,
2013-10-25 16:47:00,60.3,34.6,30.28,North,9,0.0,2.0,38,0.00,,---,0.00,367.00,VWS V14.01,2013-10-25 20:47:00,
2013-10-25 16:50:00,60.5,34.8,30.28,North,5,0.0,8.0,38,0.00,,---,0.00,360.00,VWS V14.01,2013-10-25 20:50:00,
2013-10-25 16:52:00,60.5,34.8,30.28,North,5,4.0,5.0,38,0.00,,---,0.00,352.00,VWS V14.01,2013-10-25 20:52:00,
2013-10-25 16:55:00,60.6,34.9,30.28,North,5,3.0,8.0,38,0.00,,---,0.00,345.00,VWS V14.01,2013-10-25 20:55:00,
2013-10-25 16:57:00,60.5,35.4,30.28,NNE,13,3.0,4.0,39,0.00,,---,0.00,336.00,VWS V14.01,2013-10-25 20:57:00,
2013-10-25 17:00:00,60.5,36.1,30.28,NNW,334,3.0,8.0,40,0.00,,---,0.00,327.00,VWS V14.01,2013-10-25 21:00:00,
2013-10-25 17:02:00,60.4,36.0,30.28,NW,306,4.0,8.0,40,0.00,,---,0.00,316.00,VWS V14.01,2013-10-25 21:02:00,
2013-10-25 17:05:00,60.0,35.6,30.28,NNW,344,2.0,8.0,40,0.00,,---,0.00,308.00,VWS V14.01,2013-10-25 21:05:00,
2013-10-25 17:07:00,59.9,36.2,30.28,North,349,3.0,5.0,41,0.00,,---,0.00,297.00,VWS V14.01,2013-10-25 21:07:00,
2013-10-25 17:10:00,59.9,35.5,30.28,NNW,339,4.0,6.0,40,0.00,,---,0.00,287.00,VWS V14.01,2013-10-25 21:10:00,
2013-10-25 17:12:00,59.7,35.4,30.29,North,355,4.0,5.0,40,0.00,,---,0.00,279.00,VWS V14.01,2013-10-25 21:12:00,
2013-10-25 17:15:00,59.7,36.0,30.29,NNW,348,3.0,5.0,41,0.00,,---,0.00,269.00,VWS V14.01,2013-10-25 21:15:00,
2013-10-25 17:18:00,59.5,36.4,30.29,North,349,0.0,4.0,42,0.00,,---,0.00,257.00,VWS V14.01,2013-10-25 21:18:00,
2013-10-25 17:20:00,59.6,35.9,30.29,North,355,3.0,10.0,41,0.00,,---,0.00,248.00,VWS V14.01,2013-10-25 21:20:00,
2013-10-25 17:23:00,59.4,36.3,30.29,North,360,5.0,8.0,42,0.00,,---,0.00,236.00,VWS V14.01,2013-10-25 21:23:00,
2013-10-25 17:25:00,59.2,36.1,30.29,West,281,3.0,8.0,42,0.00,,---,0.00,230.00,VWS V14.01,2013-10-25 21:25:00,
2013-10-25 17:28:00,59.2,36.1,30.29,WNW,292,0.0,3.0,42,0.00,,---,0.00,214.00,VWS V14.01,2013-10-25 21:28:00,
2013-10-25 17:30:00,59.0,35.3,30.29,NW,308,2.0,5.0,41,0.00,,---,0.00,207.00,VWS V14.01,2013-10-25 21:30:00,
2013-10-25 17:33:00,59.1,36.0,30.29,NNW,329,4.0,5.0,42,0.00,,---,0.00,188.00,VWS V14.01,2013-10-25 21:33:00,
2013-10-25 17:35:00,58.9,35.9,30.29,NNW,346,1.0,6.0,42,0.00,,---,0.00,148.00,VWS V14.01,2013-10-25 21:35:00,
2013-10-25 17:38:00,58.9,35.9,30.29,North,355,0.0,5.0,42,0.00,,---,0.00,46.00,VWS V14.01,2013-10-25 21:38:00,
2013-10-25 17:40:00,58.9,36.5,30.29,North,355,0.0,5.0,43,0.00,,---,0.00,37.00,VWS V14.01,2013-10-25 21:40:00,
2013-10-25 17:43:00,58.9,36.5,30.29,North,355,3.0,4.0,43,0.00,,---,0.00,35.00,VWS V14.01,2013-10-25 21:43:00,
2013-10-25 17:45:00,58.7,36.3,30.29,North,355,2.0,4.0,43,0.00,,---,0.00,35.00,VWS V14.01,2013-10-25 21:45:00,
2013-10-25 17:48:00,58.5,36.1,30.29,North,355,3.0,5.0,43,0.00,,---,0.00,39.00,VWS V14.01,2013-10-25 21:48:00,
2013-10-25 17:50:00,58.4,36.0,30.29,North,5,3.0,5.0,43,0.00,,---,0.00,58.00,VWS V14.01,2013-10-25 21:50:00,
2013-10-25 17:53:00,58.1,35.7,30.29,North,355,3.0,4.0,43,0.00,,---,0.00,100.00,VWS V14.01,2013-10-25 21:53:00,
2013-10-25 17:55:00,58.0,35.7,30.29,NNW,340,0.0,5.0,43,0.00,,---,0.00,98.00,VWS V14.01,2013-10-25 21:55:00,
2013-10-25 17:59:00,57.9,35.6,30.30,NNW,343,0.0,3.0,43,0.00,,---,0.00,84.00,VWS V14.01,2013-10-25 21:59:00,
2013-10-25 18:00:00,57.8,35.5,30.30,NNW,344,2.0,3.0,43,0.00,,---,0.00,79.00,VWS V14.01,2013-10-25 22:00:00,
2013-10-25 18:04:00,57.7,35.4,30.30,NNW,345,2.0,5.0,43,0.00,,---,0.00,67.00,VWS V14.01,2013-10-25 22:04:00,
2013-10-25 18:05:00,57.7,35.4,30.30,NNW,345,0.0,5.0,43,0.00,,---,0.00,65.00,VWS V14.01,2013-10-25 22:05:00,
2013-10-25 18:09:00,57.4,36.2,30.30,NNW,346,0.0,4.0,45,0.00,,---,0.00,53.00,VWS V14.01,2013-10-25 22:09:00,
2013-10-25 18:10:00,57.3,35.6,30.30,NNW,346,0.0,4.0,44,0.00,,---,0.00,49.00,VWS V14.01,2013-10-25 22:10:00,
2013-10-25 18:14:00,56.9,35.8,30.30,NNW,346,0.0,0.0,45,0.00,,---,0.00,39.00,VWS V14.01,2013-10-25 22:14:00,
2013-10-25 18:15:00,56.9,35.8,30.30,NNW,346,0.0,0.0,45,0.00,,---,0.00,37.00,VWS V14.01,2013-10-25 22:15:00,
2013-10-25 18:19:00,56.6,36.1,30.30,NNW,346,0.0,0.0,46,0.00,,---,0.00,28.00,VWS V14.01,2013-10-25 22:19:00,
2013-10-25 18:20:00,56.5,36.0,30.30,NNW,346,0.0,0.0,46,0.00,,---,0.00,26.00,VWS V14.01,2013-10-25 22:20:00,
2013-10-25 18:24:00,56.1,36.2,30.30,North,360,3.0,4.0,47,0.00,,---,0.00,19.00,VWS V14.01,2013-10-25 22:24:00,
2013-10-25 18:25:00,56.1,36.2,30.30,North,360,2.0,4.0,47,0.00,,---,0.00,18.00,VWS V14.01,2013-10-25 22:25:00,
2013-10-25 18:29:00,55.9,36.5,30.30,North,355,0.0,5.0,48,0.00,,---,0.00,12.00,VWS V14.01,2013-10-25 22:29:00,
2013-10-25 18:30:00,55.8,36.4,30.30,North,355,0.0,5.0,48,0.00,,---,0.00,12.00,VWS V14.01,2013-10-25 22:30:00,
2013-10-25 18:34:00,55.3,36.5,30.30,North,355,0.0,0.0,49,0.00,,---,0.00,9.00,VWS V14.01,2013-10-25 22:34:00,
2013-10-25 18:35:00,55.2,36.9,30.30,North,355,0.0,0.0,50,0.00,,---,0.00,9.00,VWS V14.01,2013-10-25 22:35:00,
2013-10-25 18:40:00,54.7,36.4,30.30,North,355,0.0,0.0,50,0.00,,---,0.00,5.00,VWS V14.01,2013-10-25 22:40:00,
2013-10-25 18:45:00,54.1,36.4,30.30,North,355,0.0,0.0,51,0.00,,---,0.00,0.00,VWS V14.01,2013-10-25 22:45:00,
2013-10-25 18:50:00,53.8,36.6,30.31,North,355,0.0,0.0,52,0.00,,---,0.00,0.00,VWS V14.01,2013-10-25 22:50:00,
2013-10-25 18:55:00,53.2,36.5,30.31,North,355,0.0,0.0,53,0.00,,---,0.00,0.00,VWS V14.01,2013-10-25 22:55:00,
2013-10-25 19:00:00,52.4,36.7,30.31,North,355,0.0,0.0,55,0.00,,---,0.00,0.00,VWS V14.01,2013-10-25 23:00:00,
2013-10-25 19:05:00,51.4,36.7,30.31,North,355,0.0,0.0,57,0.00,,---,0.00,0.00,VWS V14.01,2013-10-25 23:05:00,
2013-10-25 19:10:00,50.9,36.7,30.31,North,355,0.0,0.0,58,0.00,,---,0.00,0.00,VWS V14.01,2013-10-25 23:10:00,
2013-10-25 19:15:00,50.0,36.7,30.31,North,355,0.0,0.0,60,0.00,,---,0.00,0.00,VWS V14.01,2013-10-25 23:15:00,
2013-10-25 19:20:00,49.0,37.0,30.32,North,355,0.0,0.0,63,0.00,,---,0.00,0.00,VWS V14.01,2013-10-25 23:20:00,
2013-10-25 19:25:00,48.6,37.0,30.32,North,355,0.0,0.0,64,0.00,,---,0.00,0.00,VWS V14.01,2013-10-25 23:25:00,
2013-10-25 19:30:00,48.4,37.2,30.32,North,355,0.0,0.0,65,0.00,,---,0.00,0.00,VWS V14.01,2013-10-25 23:30:00,
2013-10-25 19:35:00,48.9,37.7,30.32,North,355,0.0,0.0,65,0.00,,---,0.00,0.00,VWS V14.01,2013-10-25 23:35:00,
2013-10-25 19:36:00,49.0,37.8,30.32,North,355,0.0,0.0,65,0.00,,---,0.00,0.00,VWS V14.01,2013-10-25 23:36:00,
2013-10-25 19:40:00,49.2,37.6,30.32,North,355,0.0,0.0,64,0.00,,---,0.00,0.00,VWS V14.01,2013-10-25 23:40:00,
2013-10-25 19:41:00,49.2,37.6,30.32,North,355,0.0,0.0,64,0.00,,---,0.00,0.00,VWS V14.01,2013-10-25 23:41:00,
2013-10-25 19:45:00,48.9,37.3,30.32,North,355,0.0,0.0,64,0.00,,---,0.00,0.00,VWS V14.01,2013-10-25 23:45:00,
2013-10-25 19:46:00,48.9,37.3,30.32,North,355,0.0,0.0,64,0.00,,---,0.00,0.00,VWS V14.01,2013-10-25 23:46:00,
2013-10-25 19:50:00,48.7,37.5,30.32,North,355,0.0,0.0,65,0.00,,---,0.00,0.00,VWS V14.01,2013-10-25 23:50:00,
2013-10-25 19:51:00,48.5,37.3,30.32,North,355,0.0,0.0,65,0.00,,---,0.00,0.00,VWS V14.01,2013-10-25 23:51:00,
2013-10-25 19:55:00,48.1,37.3,30.32,North,355,0.0,0.0,66,0.00,,---,0.00,0.00,VWS V14.01,2013-10-25 23:55:00,
2013-10-25 19:56:00,47.9,37.1,30.32,North,355,0.0,0.0,66,0.00,,---,0.00,0.00,VWS V14.01,2013-10-25 23:56:00,
2013-10-25 20:00:00,47.5,37.1,30.32,North,355,0.0,0.0,67,0.00,,---,0.00,0.00,VWS V14.01,2013-10-26 00:00:00,
2013-10-25 20:01:00,47.5,37.5,30.32,North,355,0.0,0.0,68,0.00,,---,0.00,0.00,VWS V14.01,2013-10-26 00:01:00,
2013-10-25 20:05:00,47.5,37.5,30.32,North,355,0.0,0.0,68,0.00,,---,0.00,0.00,VWS V14.01,2013-10-26 00:05:00,
2013-10-25 20:06:00,47.5,37.5,30.33,North,355,0.0,0.0,68,0.00,,---,0.00,0.00,VWS V14.01,2013-10-26 00:06:00,
2013-10-25 20:10:00,47.1,36.7,30.33,North,355,0.0,0.0,67,0.00,,---,0.00,0.00,VWS V14.01,2013-10-26 00:10:00,
2013-10-25 20:12:00,46.8,36.8,30.33,North,355,0.0,0.0,68,0.00,,---,0.00,0.00,VWS V14.01,2013-10-26 00:12:00,
2013-10-25 20:15:00,46.9,37.3,30.33,North,355,0.0,0.0,69,0.00,,---,0.00,0.00,VWS V14.01,2013-10-26 00:15:00,
2013-10-25 20:17:00,47.0,37.4,30.33,North,355,0.0,0.0,69,0.00,,---,0.00,0.00,VWS V14.01,2013-10-26 00:17:00,
2013-10-25 20:20:00,47.0,37.4,30.33,North,355,0.0,0.0,69,0.00,,---,0.00,0.00,VWS V14.01,2013-10-26 00:20:00,
2013-10-25 20:22:00,46.9,37.3,30.33,North,355,0.0,0.0,69,0.00,,---,0.00,0.00,VWS V14.01,2013-10-26 00:22:00,
2013-10-25 20:25:00,46.5,36.9,30.33,North,355,0.0,0.0,69,0.00,,---,0.00,0.00,VWS V14.01,2013-10-26 00:25:00,
2013-10-25 20:27:00,46.1,36.5,30.33,North,355,0.0,0.0,69,0.00,,---,0.00,0.00,VWS V14.01,2013-10-26 00:27:00,
2013-10-25 20:30:00,45.4,35.8,30.33,North,355,0.0,0.0,69,0.00,,---,0.00,0.00,VWS V14.01,2013-10-26 00:30:00,
2013-10-25 20:32:00,44.9,36.1,30.33,North,355,0.0,0.0,71,0.00,,---,0.00,0.00,VWS V14.01,2013-10-26 00:32:00,
2013-10-25 20:35:00,44.7,36.6,30.33,North,355,0.0,0.0,73,0.00,,---,0.00,0.00,VWS V14.01,2013-10-26 00:35:00,
2013-10-25 20:37:00,44.7,36.6,30.33,North,355,0.0,0.0,73,0.00,,---,0.00,0.00,VWS V14.01,2013-10-26 00:37:00,
2013-10-25 20:40:00,44.2,36.5,30.33,North,355,0.0,0.0,74,0.00,,---,0.00,0.00,VWS V14.01,2013-10-26 00:40:00,
2013-10-25 20:42:00,44.2,36.5,30.33,North,355,0.0,0.0,74,0.00,,---,0.00,0.00,VWS V14.01,2013-10-26 00:42:00,
2013-10-25 20:45:00,43.9,36.5,30.33,North,355,0.0,0.0,75,0.00,,---,0.00,0.00,VWS V14.01,2013-10-26 00:45:00,
2013-10-25 20:47:00,43.7,36.6,30.33,North,355,0.0,0.0,76,0.00,,---,0.00,0.00,VWS V14.01,2013-10-26 00:47:00,
2013-10-25 20:50:00,43.7,36.6,30.33,North,355,0.0,0.0,76,0.00,,---,0.00,0.00,VWS V14.01,2013-10-26 00:50:00,
2013-10-25 20:53:00,43.6,36.5,30.33,North,355,0.0,0.0,76,0.00,,---,0.00,0.00,VWS V14.01,2013-10-26 00:53:00,
2013-10-25 20:55:00,43.3,36.6,30.34,North,355,0.0,0.0,77,0.00,,---,0.00,0.00,VWS V14.01,2013-10-26 00:55:00,
2013-10-25 20:58:00,43.0,36.3,30.34,North,355,0.0,0.0,77,0.00,,---,0.00,0.00,VWS V14.01,2013-10-26 00:58:00,
2013-10-25 21:00:00,42.5,35.8,30.34,North,355,0.0,0.0,77,0.00,,---,0.00,0.00,VWS V14.01,2013-10-26 01:00:00,
2013-10-25 21:03:00,42.2,36.2,30.34,North,355,0.0,0.0,79,0.00,,---,0.00,0.00,VWS V14.01,2013-10-26 01:03:00,
2013-10-25 21:05:00,42.1,36.1,30.34,North,355,0.0,0.0,79,0.00,,---,0.00,0.00,VWS V14.01,2013-10-26 01:05:00,
2013-10-25 21:08:00,42.3,36.6,30.34,North,355,0.0,0.0,80,0.00,,---,0.00,0.00,VWS V14.01,2013-10-26 01:08:00,
2013-10-25 21:10:00,42.2,36.2,30.34,North,355,0.0,0.0,79,0.00,,---,0.00,0.00,VWS V14.01,2013-10-26 01:10:00,
2013-10-25 21:13:00,42.1,36.1,30.35,North,355,0.0,0.0,79,0.00,,---,0.00,0.00,VWS V14.01,2013-10-26 01:13:00,
2013-10-25 21:15:00,42.1,36.1,30.35,North,355,0.0,0.0,79,0.00,,---,0.00,0.00,VWS V14.01,2013-10-26 01:15:00,
2013-10-25 21:18:00,42.0,36.3,30.35,North,355,0.0,0.0,80,0.00,,---,0.00,0.00,VWS V14.01,2013-10-26 01:18:00,
2013-10-25 21:20:00,42.0,36.6,30.35,North,355,0.0,0.0,81,0.00,,---,0.00,0.00,VWS V14.01,2013-10-26 01:20:00,
2013-10-25 21:23:00,41.9,36.2,30.35,North,355,0.0,0.0,80,0.00,,---,0.00,0.00,VWS V14.01,2013-10-26 01:23:00,
2013-10-25 21:25:00,41.9,36.2,30.35,North,355,0.0,0.0,80,0.00,,---,0.00,0.00,VWS V14.01,2013-10-26 01:25:00,
2013-10-25 21:28:00,42.0,36.3,30.35,North,355,0.0,0.0,80,0.00,,---,0.00,0.00,VWS V14.01,2013-10-26 01:28:00,
2013-10-25 21:30:00,42.0,36.3,30.35,North,355,0.0,0.0,80,0.00,,---,0.00,0.00,VWS V14.01,2013-10-26 01:30:00,
2013-10-25 21:34:00,41.9,36.2,30.36,North,355,0.0,0.0,80,0.00,,---,0.00,0.00,VWS V14.01,2013-10-26 01:34:00,
2013-10-25 21:35:00,41.8,36.1,30.35,North,355,0.0,0.0,80,0.00,,---,0.00,0.00,VWS V14.01,2013-10-26 01:35:00,
2013-10-25 21:39:00,41.5,36.1,30.36,North,355,0.0,0.0,81,0.00,,---,0.00,0.00,VWS V14.01,2013-10-26 01:39:00,
2013-10-25 21:40:00,41.5,36.4,30.36,North,355,0.0,0.0,82,0.00,,---,0.00,0.00,VWS V14.01,2013-10-26 01:40:00,
2013-10-25 21:44:00,41.3,36.5,30.35,North,355,0.0,0.0,83,0.00,,---,0.00,0.00,VWS V14.01,2013-10-26 01:44:00,
2013-10-25 21:45:00,41.3,36.5,30.36,North,355,0.0,0.0,83,0.00,,---,0.00,0.00,VWS V14.01,2013-10-26 01:45:00,
2013-10-25 21:49:00,41.1,36.3,30.35,North,355,0.0,0.0,83,0.00,,---,0.00,0.00,VWS V14.01,2013-10-26 01:49:00,
2013-10-25 21:50:00,41.0,36.2,30.36,North,355,0.0,0.0,83,0.00,,---,0.00,0.00,VWS V14.01,2013-10-26 01:50:00,
2013-10-25 21:54:00,40.6,35.8,30.35,North,355,0.0,0.0,83,0.00,,---,0.00,0.00,VWS V14.01,2013-10-26 01:54:00,
2013-10-25 21:55:00,40.6,36.2,30.35,North,355,0.0,0.0,84,0.00,,---,0.00,0.00,VWS V14.01,2013-10-26 01:55:00,
2013-10-25 21:59:00,40.3,35.9,30.36,North,355,0.0,0.0,84,0.00,,---,0.00,0.00,VWS V14.01,2013-10-26 01:59:00,
2013-10-25 22:00:00,40.3,35.9,30.36,North,355,0.0,0.0,84,0.00,,---,0.00,0.00,VWS V14.01,2013-10-26 02:00:00,
2013-10-25 22:04:00,39.8,35.4,30.36,North,355,0.0,0.0,84,0.00,,---,0.00,0.00,VWS V14.01,2013-10-26 02:04:00,
2013-10-25 22:05:00,39.8,35.7,30.36,North,355,0.0,0.0,85,0.00,,---,0.00,0.00,VWS V14.01,2013-10-26 02:05:00,
2013-10-25 22:09:00,39.7,35.6,30.36,North,355,0.0,0.0,85,0.00,,---,0.00,0.00,VWS V14.01,2013-10-26 02:09:00,
2013-10-25 22:10:00,39.7,35.9,30.36,North,355,0.0,0.0,86,0.00,,---,0.00,0.00,VWS V14.01,2013-10-26 02:10:00,
2013-10-25 22:15:00,39.6,35.8,30.36,North,355,0.0,0.0,86,0.00,,---,0.00,0.00,VWS V14.01,2013-10-26 02:15:00,
2013-10-25 22:20:00,39.3,35.2,30.36,North,355,0.0,0.0,85,0.00,,---,0.00,0.00,VWS V14.01,2013-10-26 02:20:00,
2013-10-25 22:25:00,38.9,35.4,30.36,North,355,0.0,0.0,87,0.00,,---,0.00,0.00,VWS V14.01,2013-10-26 02:25:00,
2013-10-25 22:30:00,38.9,35.4,30.36,North,355,0.0,0.0,87,0.00,,---,0.00,0.00,VWS V14.01,2013-10-26 02:30:00,
2013-10-25 22:35:00,39.1,35.8,30.36,North,355,0.0,0.0,88,0.00,,---,0.00,0.00,VWS V14.01,2013-10-26 02:35:00,
2013-10-25 22:40:00,39.3,36.0,30.36,North,355,0.0,0.0,88,0.00,,---,0.00,0.00,VWS V14.01,2013-10-26 02:40:00,
2013-10-25 22:45:00,39.4,36.4,30.36,North,355,0.0,0.0,89,0.00,,---,0.00,0.00,VWS V14.01,2013-10-26 02:45:00,
2013-10-25 22:46:00,39.5,36.5,30.36,North,355,0.0,0.0,89,0.00,,---,0.00,0.00,VWS V14.01,2013-10-26 02:46:00,
2013-10-25 22:50:00,39.2,36.0,30.36,North,355,0.0,0.0,88,0.00,,---,0.00,0.00,VWS V14.01,2013-10-26 02:50:00,
2013-10-25 22:51:00,39.1,35.8,30.36,North,355,0.0,0.0,88,0.00,,---,0.00,0.00,VWS V14.01,2013-10-26 02:51:00,
2013-10-25 22:55:00,38.4,35.2,30.36,North,355,0.0,0.0,88,0.00,,---,0.00,0.00,VWS V14.01,2013-10-26 02:55:00,
2013-10-25 22:56:00,38.4,35.2,30.36,North,355,0.0,0.0,88,0.00,,---,0.00,0.00,VWS V14.01,2013-10-26 02:56:00,
2013-10-25 23:00:00,38.4,35.5,30.36,North,355,0.0,0.0,89,0.00,,---,0.00,0.00,VWS V14.01,2013-10-26 03:00:00,
2013-10-25 23:01:00,38.4,35.5,30.36,North,355,0.0,0.0,89,0.00,,---,0.00,0.00,VWS V14.01,2013-10-26 03:01:00,
2013-10-25 23:05:00,38.5,35.5,30.37,North,355,0.0,0.0,89,0.00,,---,0.00,0.00,VWS V14.01,2013-10-26 03:05:00,
2013-10-25 23:06:00,38.6,35.6,30.36,North,355,0.0,0.0,89,0.00,,---,0.00,0.00,VWS V14.01,2013-10-26 03:06:00,
2013-10-25 23:10:00,38.3,35.3,30.36,North,355,0.0,0.0,89,0.00,,---,0.00,0.00,VWS V14.01,2013-10-26 03:10:00,
2013-10-25 23:11:00,38.2,35.2,30.36,North,355,0.0,0.0,89,0.00,,---,0.00,0.00,VWS V14.01,2013-10-26 03:11:00,
2013-10-25 23:15:00,37.7,34.5,30.36,North,355,0.0,0.0,88,0.00,,---,0.00,0.00,VWS V14.01,2013-10-26 03:15:00,
2013-10-25 23:16:00,37.4,34.2,30.36,North,355,0.0,0.0,88,0.00,,---,0.00,0.00,VWS V14.01,2013-10-26 03:16:00,
2013-10-25 23:20:00,37.2,34.3,30.36,North,355,0.0,0.0,89,0.00,,---,0.00,0.00,VWS V14.01,2013-10-26 03:20:00,
2013-10-25 23:22:00,37.2,34.3,30.36,North,355,0.0,0.0,89,0.00,,---,0.00,0.00,VWS V14.01,2013-10-26 03:22:00,
2013-10-25 23:25:00,37.3,34.6,30.36,North,355,0.0,0.0,90,0.00,,---,0.00,0.00,VWS V14.01,2013-10-26 03:25:00,
2013-10-25 23:27:00,37.4,34.7,30.36,North,355,0.0,0.0,90,0.00,,---,0.00,0.00,VWS V14.01,2013-10-26 03:27:00,
2013-10-25 23:30:00,37.3,34.6,30.36,North,355,0.0,0.0,90,0.00,,---,0.00,0.00,VWS V14.01,2013-10-26 03:30:00,
2013-10-25 23:32:00,37.2,34.5,30.36,North,355,0.0,0.0,90,0.00,,---,0.00,0.00,VWS V14.01,2013-10-26 03:32:00,
2013-10-25 23:35:00,37.1,34.4,30.36,North,355,0.0,0.0,90,0.00,,---,0.00,0.00,VWS V14.01,2013-10-26 03:35:00,
2013-10-25 23:37:00,37.0,34.3,30.36,North,355,0.0,0.0,90,0.00,,---,0.00,0.00,VWS V14.01,2013-10-26 03:37:00,
2013-10-25 23:40:00,37.0,34.3,30.36,North,355,0.0,0.0,90,0.00,,---,0.00,0.00,VWS V14.01,2013-10-26 03:40:00,
2013-10-25 23:42:00,36.9,34.2,30.36,North,355,0.0,0.0,90,0.00,,---,0.00,0.00,VWS V14.01,2013-10-26 03:42:00,
2013-10-25 23:45:00,36.7,34.0,30.36,North,355,0.0,0.0,90,0.00,,---,0.00,0.00,VWS V14.01,2013-10-26 03:45:00,
2013-10-25 23:47:00,36.6,34.0,30.36,North,355,0.0,0.0,90,0.00,,---,0.00,0.00,VWS V14.01,2013-10-26 03:47:00,
2013-10-25 23:50:00,36.6,34.0,30.36,North,355,0.0,0.0,90,0.00,,---,0.00,0.00,VWS V14.01,2013-10-26 03:50:00,
2013-10-25 23:52:00,36.5,33.8,30.36,North,355,0.0,0.0,90,0.00,,---,0.00,0.00,VWS V14.01,2013-10-26 03:52:00,
2013-10-25 23:55:00,36.6,34.0,30.36,North,355,0.0,0.0,90,0.00,,---,0.00,0.00,VWS V14.01,2013-10-26 03:55:00,
2013-10-25 23:57:00,36.6,34.2,30.36,North,355,0.0,0.0,91,0.00,,---,0.00,0.00,VWS V14.01,2013-10-26 03:57:00,